DateTimeUTC,F1_A11,F1_S11,BsB_S11,BsG_S11,BsR_S11,BbsB_S11,BbsG_S11,BbsR_S11,BaB_A11,BaG_A11,BaR_A11,Tu_S11,T_S11,Uu_S11,U_S11,P_S11,T1_A11
2021-09-26T12:00:00Z,00000200,21000000,,,,,,,0000.43,-000.19,-000.03,16.3,23.3,,00.0,0670.5,30.8
2021-09-26T12:01:00Z,00000200,21000000,,,,,,,-000.12,0000.08,0000.01,16.3,23.3,,00.0,0670.5,30.8
2021-09-26T12:02:00Z,00000200,21000000,,,,,,,0000.20,-000.46,0000.36,16.3,23.3,,00.0,0670.5,30.8
2021-09-26T12:03:00Z,00000200,61000000,,,,,,,0000.37,0001.13,0000.31,16.4,23.3,,00.0,0670.5,30.9
2021-09-26T12:04:00Z,00000200,41000000,0005.12,0003.69,0002.49,0001.46,0000.60,0000.43,0001.28,0001.47,0000.60,16.8,23.3,,00.0,0671.5,30.9
2021-09-26T12:05:00Z,00000200,01000000,0005.72,0003.69,0002.66,0001.13,0000.58,0000.10,0000.47,0000.42,0000.69,17.0,23.4,,00.0,0671.6,30.9
2021-09-26T12:06:00Z,00000200,01000000,0004.44,0003.99,0002.24,0001.10,0000.86,0000.48,0001.52,0000.91,0000.84,17.0,23.4,,00.0,0671.6,30.9
2021-09-26T12:07:00Z,00000200,01000000,0004.68,0003.72,0002.11,0000.76,0000.80,0000.59,0000.98,0000.91,0000.89,17.0,23.4,,00.0,0671.6,30.9
2021-09-26T12:08:00Z,00000200,01000000,0005.45,0003.84,0002.44,0000.80,0000.34,0000.62,0000.80,0000.87,0000.51,17.0,23.4,,00.0,0671.6,30.9
2021-09-26T12:09:00Z,00000200,01000000,0005.14,0003.77,0002.07,0000.79,0000.12,0000.33,0000.99,0000.72,0000.77,16.9,23.4,,00.0,0671.6,30.9
2021-09-26T12:10:00Z,00000200,01000000,0004.80,0003.48,0002.28,0000.47,0000.61,0000.39,0001.34,0001.05,0000.56,16.9,23.3,,00.0,0671.6,30.9
2021-09-26T12:11:00Z,00000200,01000000,0005.32,0003.56,0001.94,0001.16,0000.72,0000.36,0001.10,0000.86,0001.13,16.9,23.3,,00.0,0671.6,30.8
2021-09-26T12:12:00Z,00000200,01000000,0004.92,0003.63,0002.03,0000.93,0000.39,0000.58,0001.12,0001.50,0000.64,16.8,23.3,,00.0,0671.7,30.8
2021-09-26T12:13:00Z,00000200,01000000,0005.07,0003.31,0001.86,0000.67,0000.42,0000.48,0001.16,0000.89,0001.04,16.9,23.3,,00.0,0671.7,30.9
2021-09-26T12:14:00Z,00000200,01000000,0004.23,0003.28,0002.12,0000.31,0000.55,0000.44,0001.10,0001.20,0000.42,16.9,23.4,,00.0,0671.7,30.9
2021-09-26T12:15:00Z,00000200,01000000,0005.08,0003.47,0001.95,0000.48,0000.50,0000.21,0001.39,0001.02,0001.17,17.0,23.4,,00.0,0671.7,30.9
2021-09-26T12:16:00Z,00000200,01000000,0004.21,0003.17,0002.16,0001.52,0000.64,0000.31,0000.87,0001.33,0000.36,17.1,23.4,,00.0,0671.7,30.9
2021-09-26T12:17:00Z,00000200,01000000,0004.13,0003.38,0001.66,0000.24,0000.33,0000.15,0001.20,0000.86,0000.89,17.2,23.5,,00.0,0671.7,30.9
2021-09-26T12:18:00Z,00000200,01000000,0004.97,0003.00,0001.93,0001.31,0000.49,0000.13,0000.83,0000.69,0000.63,17.2,23.5,,00.0,0671.7,30.9
2021-09-26T12:19:00Z,00000200,01000000,0004.15,0003.03,0001.84,0001.11,0000.55,-000.02,0000.76,0000.86,0000.38,17.2,23.5,,00.0,0671.7,30.9
2021-09-26T12:20:00Z,00000200,01000000,0004.51,0002.69,0001.70,0000.48,0000.13,0000.17,0000.78,0000.22,0000.26,17.2,23.5,,00.0,0671.7,30.9
2021-09-26T12:21:00Z,00000200,01000000,0004.45,0002.85,0001.47,0000.79,0000.27,0000.00,0000.80,0000.85,0000.74,17.1,23.5,,00.0,0671.7,30.9
2021-09-26T12:22:00Z,00000200,01000000,0003.57,0002.63,0001.53,0000.96,0000.02,0000.51,0000.97,0000.83,0000.67,17.0,23.5,,00.0,0671.7,30.9
2021-09-26T12:23:00Z,00000200,01000000,0004.06,0002.94,0001.68,0000.49,0000.54,0000.39,0000.68,0000.31,0000.44,17.0,23.4,,00.0,0671.7,30.8
2021-09-26T12:24:00Z,00000200,01000000,0004.52,0002.70,0001.68,0000.49,0000.54,0000.04,0000.67,0001.11,0000.39,16.9,23.4,,00.0,0671.6,30.8
2021-09-26T12:25:00Z,00000200,01000000,0003.91,0003.20,0001.58,0001.07,0000.11,0000.46,0001.24,0000.93,0000.71,16.8,23.4,,00.0,0671.6,30.8
2021-09-26T12:26:00Z,00000200,01000000,0003.88,0002.71,0001.58,0001.18,0000.73,0000.09,0000.86,0000.77,0000.73,16.8,23.3,,00.0,0671.6,30.8
2021-09-26T12:27:00Z,00000200,01000000,0003.74,0002.76,0001.79,0000.02,0000.37,0000.42,0001.12,0000.97,0000.83,16.8,23.3,,00.0,0671.6,30.8
2021-09-26T12:28:00Z,00000200,01000000,0004.49,0003.26,0001.44,0000.49,0000.50,0000.17,0000.96,0001.10,0000.52,16.8,23.3,,00.0,0671.6,30.8
2021-09-26T12:29:00Z,00000200,01000000,0003.55,0002.52,0001.42,0000.23,0000.34,0000.31,0001.18,0000.97,0000.96,16.9,23.3,,00.0,0671.7,30.8
2021-09-26T12:30:00Z,00000200,01000000,0004.07,0002.76,0001.66,0000.52,0000.47,0000.37,0000.97,0001.17,0000.58,17.0,23.4,,00.0,0671.7,30.9
2021-09-26T12:31:00Z,00000200,01000000,0003.80,0002.81,0001.67,0000.21,0000.45,0000.34,0000.79,0000.65,0000.80,17.0,23.4,,00.0,0671.7,30.9
2021-09-26T12:32:00Z,00000200,01000000,0002.98,0002.54,0001.93,0000.35,0000.31,0000.22,0000.90,0000.66,0000.68,17.1,23.5,,00.0,0671.7,30.9
2021-09-26T12:33:00Z,00000200,01000000,0003.85,0003.07,0001.53,0000.81,0000.34,0000.04,0000.95,0001.11,0000.51,17.2,23.5,,00.0,0671.7,30.9
2021-09-26T12:34:00Z,00000200,01000000,0004.36,0002.77,0001.94,0000.77,0000.40,0000.42,0000.81,0000.16,0000.63,17.2,23.5,,00.0,0671.7,30.9
2021-09-26T12:35:00Z,00000200,01000000,0004.15,0002.87,0001.94,0000.75,0000.37,0000.32,0000.75,0000.83,0000.23,17.1,23.5,,00.0,0671.6,30.9
2021-09-26T12:36:00Z,00000200,01000000,0002.95,0002.99,0001.88,0001.35,0000.87,0000.36,0000.71,0000.53,0000.54,17.0,23.5,,00.0,0671.6,30.8
2021-09-26T12:37:00Z,00000200,01000000,0004.45,0002.52,0001.95,0000.88,0000.85,0000.62,0000.92,0000.98,0000.41,17.0,23.5,,00.0,0671.6,30.8
2021-09-26T12:38:00Z,00000200,01000000,0004.46,0002.82,0001.97,0000.52,0000.34,0000.37,0001.02,0000.65,0000.76,16.9,23.4,,00.0,0671.6,30.8
2021-09-26T12:39:00Z,00000200,01000000,0004.55,0003.41,0001.74,0001.37,0000.57,0000.10,0000.90,0001.17,0000.53,16.9,23.4,,00.0,0671.6,30.8
2021-09-26T12:40:00Z,00000200,01000000,0003.43,0002.87,0001.82,0000.44,0000.20,0000.35,0000.99,0000.55,0000.58,16.8,23.4,,00.0,0671.5,30.8
2021-09-26T12:41:00Z,00000200,01000000,0003.69,0002.96,0002.05,0000.95,0000.76,0000.24,0001.40,0001.33,0001.13,16.8,23.3,,00.0,0671.5,30.8
2021-09-26T12:42:00Z,00000200,01000000,0004.23,0002.91,0002.29,0001.10,0000.36,0000.25,0001.12,0001.17,0000.62,16.8,23.3,,00.0,0671.5,30.8
2021-09-26T12:43:00Z,00000200,01000000,0004.59,0003.04,0002.10,0000.77,0000.19,0000.15,0000.94,0000.98,0001.19,16.8,23.3,,00.0,0671.5,30.8
2021-09-26T12:44:00Z,00000200,01000000,0004.29,0003.16,0001.66,0000.49,0000.52,0000.12,0001.18,0001.34,0000.59,16.9,23.3,,00.0,0671.6,30.8
2021-09-26T12:45:00Z,00000200,01000000,0003.97,0003.20,0001.92,0001.06,0000.85,0000.43,0001.17,0000.81,0000.69,17.0,23.4,,00.0,0671.6,30.8
2021-09-26T12:46:00Z,00000200,01000000,0004.40,0003.14,0001.91,0000.87,0000.39,0000.51,0001.00,0000.96,0000.89,17.0,23.4,,00.0,0671.6,30.9
2021-09-26T12:47:00Z,00000200,01000000,0004.27,0003.04,0002.23,0000.45,0000.66,0000.56,0000.88,0001.11,0000.52,17.1,23.5,,00.0,0671.6,30.9
2021-09-26T12:48:00Z,00000200,01000000,0004.53,0002.85,0002.20,0000.52,0000.54,0000.63,0000.87,0000.67,0000.78,17.2,23.5,,00.0,0671.6,30.9
2021-09-26T12:49:00Z,00000200,01000000,0003.33,0002.79,0001.84,0000.92,0000.40,0000.50,0000.52,0000.75,0000.61,17.3,23.5,,00.0,0671.6,30.9
2021-09-26T12:50:00Z,00000200,01000000,0004.19,0002.99,0002.24,0000.22,0000.45,0000.55,0001.05,0000.51,0000.28,17.3,23.5,,00.0,0671.6,30.9
2021-09-26T12:51:00Z,00000200,01000000,0003.80,0002.88,0001.93,0001.00,0000.39,0000.28,0000.40,0000.47,0000.33,17.2,23.5,,00.0,0671.6,30.9
2021-09-26T12:52:00Z,00000200,01000000,0003.72,0002.75,0002.04,0000.77,0000.74,0000.17,0001.36,0001.14,0000.85,17.1,23.5,,00.0,0671.6,30.9
2021-09-26T12:53:00Z,00000200,01000000,0003.97,0003.30,0001.86,0000.38,0000.39,0000.22,0000.75,0000.89,0000.49,17.1,23.5,,00.0,0671.6,30.8
2021-09-26T12:54:00Z,00000200,01000000,0004.50,0002.58,0001.69,0001.37,0000.69,0000.20,0001.01,0000.45,0000.52,17.0,23.5,,00.0,0671.6,30.8
2021-09-26T12:55:00Z,00000200,01000000,0003.77,0003.21,0001.64,0000.87,0000.48,0000.23,0000.99,0000.71,0000.71,16.9,23.4,,00.0,0671.6,30.8
2021-09-26T12:56:00Z,00000200,01000000,0004.25,0002.71,0001.85,0000.95,0000.53,0000.10,0001.48,0001.52,0001.32,16.9,23.4,,00.0,0671.7,30.8
2021-09-26T12:57:00Z,00000200,41000000,,,,,,,0000.94,0001.15,0000.51,16.9,23.4,,00.0,0671.5,30.8
2021-09-26T12:58:00Z,00000200,61000000,,,,,,,-000.13,-000.06,-000.02,16.7,23.5,,00.0,0670.7,30.8
2021-09-26T12:59:00Z,00000200,21000000,,,,,,,-000.04,-000.15,-000.23,16.7,23.6,,00.0,0670.7,30.8
